STARLINK-3635, 51981

Orbit data source: Space-Track

STARLINK-3635, 51981 is a payload satellite owned by SpaceX/Seattle (US) in LEO that was launched on Wed, 09 Mar 2022 UTC via an FALCON 9 launch vehicle from the Air Force Eastern Test Range (AFETR). Payload-class satellites include a variety of spacecraft equipped with specific instruments for various scientific and technological missions. These include communications satellites like Starlink; space stations such as the ISS; scientific satellites like the Hubble; Earth observation satellites from companies like Planet Labs, Umbra, and HawkEye 360; GPS; miniature CubeSats for education and research; and military/defense satellites.

Loading next visibility...
Identifier
51981, 2022-025AB
Orbit
LEO
Country
Flag of USUS
Related business
Manufacturer
SpaceX/Seattle
Mission
Operational Commercial Communications
Bus & Motor
STARLINK, Unknown motor
Mass
297 kg wet, ~275 kg dry
Launch date (UTC)
2022-03-09 (4 years ago)
Launch vehicle
FALCON 9
Launch site
Air Force Eastern Test Range (AFETR)
Object type
Payload
Rocket body
Debris
Shape & HBR
Box + 1 Pan, 10.1 m
Radar Cross Section
13.562 m², Large (>1 m²)

Expand to show TLE details & history
Last TLE update: 3 days ago

TLE from 3 days ago
0 STARLINK-3635
1 51981U 22025AB  26170.62503628 -.00000020  00000-0  16828-4 0  9995
2 51981  53.1599 301.4044 0000984  84.6226 275.4878 15.08834795236443
Epoch: 2026-06-19T15:00Z
TLE epoch observation values (Epoch: 2026-06-19T15:00:03.134Z)
Latitude
-0°
Longitude
168.54001°
Altitude
540.586 km
Speed
7.593 km/s
True Right ascension
20h 05m 37s
True Declination
0° 00' 00"
Sunlit
Object was in full shadow at epoch
Visualization orbit readout
Latitude
Unknown
Longitude
Unknown
Altitude
Unknown
Speed
Unknown
Apparent Right ascension
Unknown
Apparent Declination
Unknown
Sunlit
N/A
Visualization observer readout
Local Sidereal Time
21:34:18
Azimuth
Unknown
Elevation
Unknown
Doppler factor
Unknown
Orbital elements
Apogee altitude
540.694 km
Perigee altitude
539.333 km
Semi-major axis
6,918.15 km
Eccentricity
0.0001
Inclination
53.1599°
RAAN
301.4044°
Arg. of periapsis
84.6226°
True anomaly
275.47658°
Mean anomaly
275.4878°
Eccentric anomaly
275.48219°
Mean motion
3.77188 °/min
Orbital period
95.44 mins
BSTAR
0.000016828
Loading maneuver chart data...
Computing Atmospheric mass density...
Loading historical data...
Loading historical data...
Loading historical data...
Loading historical data...
Loading historical data...
Loading historical data...
Loading historical data...

Documentation

Showing up to 5 results
|